Location: Hylvaty SDH
(49.9612°N, 16.4057°E)
Time: 11:57:39
(UTC+01:00)

Tiros 1 - Pass Details

Date: 10 October 2020
Orbit: 630 x 663 km, 48.4° (Epoch: 28 October)

Event Time Altitude Azimuth Distance (km) Brightness Sun altitude
Rises 17:03:22 0° 281° (W) 2,959 11.6 9.9°
Reaches altitude 10° 17:06:07 10° 266° (W) 2,052 11.5 9.5°
Maximum altitude 17:09:44 22° 216° (SW) 1,420 10.1 8.9°
Drops below altitude 10° 17:13:22 10° 166° (SSE) 2,059 9.9 8.4°
Sets 17:16:08 0° 151° (SSE) 2,972 10.5 8.0°
